Location: Recife
(8.0585°S, 34.8848°W)
Time: 20:08:36
(UTC-03:00)

Explorer 11/Cluster Stage 4 - Pass Details

Date: 16 April 2026
Orbit: 463 x 1174 km, 28.8° (Epoch: 16 May)

Event Time Altitude Azimuth Distance (km) Brightness Sun altitude
Rises 08:18:35 0° 287° (WNW) 3,286 9.4 41.4°
Reaches altitude 10° 08:24:14 10° 332° (NNW) 2,599 9.3 42.7°
Maximum altitude 08:24:43 10° 336° (NNW) 2,612 9.4 42.8°
Drops below altitude 10° 08:25:12 10° 341° (NNW) 2,637 9.4 43.0°
Sets 08:31:38 0° 23° (NNE) 3,812 10.6 44.4°
